Location: Forest
(37.3641°N, 79.2902°W)
Time: 00:47:22
(UTC+00:00)

Hubble Space Telescope - Pass Details

Date: 26 January 2026
Orbit: 478 x 480 km, 28.5° (Epoch: 10 February)

Event Time Altitude Azimuth Distance (km) Brightness Sun altitude
Rises 00:13:48 0° 240° (WSW) 2,512 5.5 -19.8°
Reaches altitude 10° 00:16:24 10° 223° (SW) 1,636 3.9 -20.4°
Maximum altitude 00:19:12 20° 175° (S) 1,150 2.5 -20.9°
Enters shadow 00:19:33 20° 167° (SSE) 1,159 2.4 -21.0°
